Location: Fisheating Creek Campgrounds
(26.9333°N, 81.3167°W)
Time: 23:44:26
(UTC-04:00)

Cosmos 2221 Rocket - Visible Passes

Search period start: 28 August 2016 00:00
Search period end: 07 September 2016 00:00
Orbit: 620 x 650 km, 82.5° (Epoch: 28 August)

Date Brightness Start Highest point End Pass type
(mag) Time Alt. Az. Time Alt. Az. Time Alt. Az.
28 Aug 3.4 05:20:58 70° W 05:21:05 70° W 05:25:30 10° N visible
29 Aug 6.4 04:06:19 15° ENE 04:06:19 15° ENE 04:08:05 10° NE visible
29 Aug 4.6 05:43:51 28° WNW 05:43:51 28° WNW 05:47:13 10° NNW visible
30 Aug 5.5 04:29:08 27° NE 04:29:08 27° NE 04:31:37 10° NNE visible
30 Aug 5.6 06:06:40 12° WNW 06:06:40 12° WNW 06:07:36 10° NW visible
31 Aug 5.1 04:51:54 30° N 04:51:54 30° N 04:54:10 10° N visible
01 Sep 5.5 05:14:36 19° NNW 05:14:36 19° NNW 05:16:05 10° NNW visible
02 Sep 6.7 03:59:45 11° NE 03:59:45 11° NE 04:00:01 10° NNE visible
03 Sep 6.4 04:22:22 12° NNE 04:22:22 12° NNE 04:22:47 10° N visible
